Woolwich, ME

8:08 PM EST on February 24, 2017 (GMT -0500)
Wiscasset

Weather History for KIWI - January, 2013

Change the Weather History Date:

Tuesday, January 1, 2013

  Actual Average Record
Temperature  
Mean Temperature 21 °F -  
Max Temperature 30 °F 31 °F 50 °F (2011)
Min Temperature 12 °F 15 °F -11 °F (2014)
Degree Days  
Heating Degree Days 44    
Moisture  
Dew Point 8 °F    
Average Humidity 55    
Maximum Humidity 88    
Minimum Humidity 31    
Precipitation  
Precipitation 0.00 in - - ()
Sea Level Pressure  
Sea Level Pressure 29.74 in    
Wind  
Wind Speed 3 mph (WNW)    
Max Wind Speed 12 mph    
Max Gust Speed 23 mph    
Visibility 10 miles    
Events      
Averages and records for this station are not official NWS values.
T = Trace of Precipitation, MM = Missing Value Source: NWS Daily Summary

Daily Weather History Graph

Daily Weather History Graph

Search for Another Location

Airport or City:

Trip Planner

Search our weather history database for the weather conditions in past years. The results will help you decide how hot, cold, wet, or windy it might be!

Date:

Astronomy

Jan. 01, 2013 Rise Set
Actual Time 7:13 AM EST 4:11 PM EST
Civil Twilight 6:40 AM EST 4:44 PM EST
Nautical Twilight 6:04 AM EST 5:21 PM EST
Astronomical Twilight 5:29 AM EST 5:56 PM EST
Moon 8:49 PM EST (1/1) 9:15 AM EST (1/1)
Length of Visible Light 10h 04m
Length of Day
8h 58m
Waning Gibbous, 83% of the Moon is Illuminated
Jan 1
Waning Gibbous
Jan 4
Last Quarter
Jan 11
New
Jan 18
First Quarter
Jan 26
Full

Hourly Weather History & Observations

Time (EST) Temp. Windchill Dew Point Humidity Pressure Visibility Wind Dir Wind Speed Gust Speed Precip Events Conditions
12:53 AM 21.0 °F - 18.0 °F 88% 29.65 in 10.0 mi Calm Calm - N/A   Scattered Clouds
1:53 AM 24.1 °F - 19.9 °F 84% 29.65 in 10.0 mi Calm Calm - N/A   Scattered Clouds
2:53 AM 28.9 °F 23.9 °F 21.9 °F 75% 29.64 in 10.0 mi West 4.6 mph - N/A   Overcast
3:53 AM 30.0 °F 26.5 °F 21.9 °F 72% 29.63 in 10.0 mi West 3.5 mph - N/A   Overcast
4:53 AM 28.9 °F - 21.9 °F 75% 29.62 in 10.0 mi Calm Calm - N/A   Clear
7:53 AM 28.9 °F - 23.0 °F 78% 29.67 in 10.0 mi Calm Calm - N/A   Scattered Clouds
8:53 AM 30.9 °F - 19.9 °F 64% 29.70 in 10.0 mi Calm Calm - N/A   Overcast
9:53 AM 30.9 °F 21.7 °F 10.0 °F 42% 29.70 in 10.0 mi NW 11.5 mph 21.9 mph N/A   Clear
10:53 AM 30.0 °F 23.2 °F 8.1 °F 40% 29.72 in 10.0 mi Variable 6.9 mph 20.7 mph N/A   Clear
11:53 AM 28.9 °F 21.9 °F 3.9 °F 35% 29.71 in 10.0 mi Variable 6.9 mph 18.4 mph N/A   Clear
12:53 PM 28.0 °F 20.8 °F 1.0 °F 31% 29.71 in 10.0 mi Variable 6.9 mph 23.0 mph N/A   Clear
1:53 PM 27.0 °F 17.3 °F 1.0 °F 33% 29.71 in 10.0 mi NW 10.4 mph 19.6 mph N/A   Clear
2:53 PM 26.1 °F 18.4 °F 1.0 °F 34% 29.72 in 10.0 mi Variable 6.9 mph - N/A   Clear
3:53 PM 23.0 °F 14.7 °F 1.0 °F 39% 29.74 in 10.0 mi Variable 6.9 mph - N/A   Clear
4:53 PM 19.9 °F 13.4 °F 1.0 °F 44% 29.76 in 10.0 mi Variable 4.6 mph - N/A   Clear
6:53 PM 17.1 °F 11.7 °F -0.9 °F 45% 29.81 in 10.0 mi Variable 3.5 mph - N/A   Clear
7:53 PM 12.0 °F - 1.0 °F 61% 29.85 in 10.0 mi Calm Calm - N/A   Clear
8:53 PM 14.0 °F 8.2 °F -0.9 °F 52% 29.86 in 10.0 mi Variable 3.5 mph - N/A   Clear
9:53 PM 12.9 °F 3.8 °F -0.9 °F 54% 29.85 in 10.0 mi Variable 5.8 mph - N/A   Clear
10:53 PM 12.9 °F 2.6 °F -2.0 °F 51% 29.87 in 10.0 mi Variable 6.9 mph - N/A   Clear
11:53 PM 12.0 °F 1.5 °F -2.0 °F 53% 29.88 in 10.0 mi Variable 6.9 mph - N/A   Clear